Home > Weather > Murmansk > Past weeks

Flag for Russia Weather for the Past 2 Weeks in Murmansk, Russia

Now
32 °F

Chilly.


Feels Like: 29 °F
Forecast: 25 / 33 °F
Wind: 3 mph from North

Location: Murmansk Airport

Current Time: Feb 12, 2016 at 4:04:35 PM

Latest Report: Feb 12, 2016 at 3:30 PM


Visibility: 1 mi

Pressure: 29.68 "Hg

Humidity: 93%

Dew point: 30 °F

Location of MurmanskLocation

Historic Weather in Murmansk — Graph

°F

Murmansk Temperature Yesterday

Maximum temperature yesterday: 36 °F (at 4:00 PM)
Minimum temperature yesterday: 32 °F (at 8:00 AM)
Average temperature yesterday: 34 °F

High & Low Weather Summary for the Past Weeks

 TemperatureHumidityPressure
High37 °F (Feb 8, 6:00 PM)93% (Jan 28, 5:30 PM)29.71 "Hg (Jan 28, 5:30 PM)
Low-9 °F (Feb 6, 11:00 PM)65% (Feb 9, 4:00 AM)28.65 "Hg (Jan 31, 7:00 AM)
Average21 °F87%29.14 "Hg
* Reported Jan 28 3:00 PM — Feb 12 3:00 PM, Murmansk, Weather by CustomWeather, © 2016

Note: Actual official high and low records may vary slightly from our data, if they occured in-between our weather recording intervals... More about our weather records

Advertising

Murmansk Weather History for the Previous 24 Hours

 ConditionsComfort  
Time TempWeatherWind HumidityBarometerVisibility
3:00 PM
Fri, Feb 12
32 °FChilly.3 mph93%29.68 "Hg1 mi
2:30 PM32 °FChilly.3 mph93%29.68 "Hg1 mi
2:00 PM32 °FSnow flurries. Partly sunny.3 mph93%29.68 "Hg3 mi
1:30 PM32 °FSnow flurries. Partly sunny.3 mph93%29.65 "Hg2 mi
1:00 PM32 °FSnow flurries. Partly sunny.3 mph93%29.65 "Hg1 mi
12:30 PM32 °FChilly.3 mph93%29.65 "Hg1 mi
12:00 PM32 °FSnow showers. Dense fog.No wind93%29.65 "Hg1 mi
11:30 AM32 °FSnow flurries. Partly sunny.No wind93%29.65 "Hg2 mi
11:00 AM32 °FSnow flurries. Partly sunny.No wind93%29.62 "Hg2 mi
10:30 AM32 °FSnow flurries. Partly sunny.1 mph93%29.62 "Hg3 mi
10:00 AM32 °FSnow flurries. Passing clouds.1 mph93%29.59 "Hg4 mi
9:30 AM34 °FSnow flurries. Passing clouds.3 mph87%29.59 "Hg6 mi
9:00 AM32 °FPassing clouds.1 mph93%29.59 "HgN/A
8:30 AM34 °FPassing clouds.1 mph87%29.56 "HgN/A
8:00 AM34 °FPassing clouds.1 mph87%29.56 "HgN/A
7:30 AM32 °FPassing clouds.3 mph93%29.56 "HgN/A
7:00 AM32 °FPassing clouds.3 mph93%29.53 "HgN/A
6:30 AM34 °FSnow flurries. Passing clouds.3 mph87%29.53 "HgN/A
6:00 AM34 °FSnow flurries. Passing clouds.3 mph87%29.50 "Hg6 mi
5:00 AM34 °FSnow flurries. Passing clouds.6 mph87%29.50 "HgN/A
4:30 AM34 °FPassing clouds.3 mph87%29.47 "HgN/A
4:00 AM34 °FPassing clouds.6 mph87%29.47 "HgN/A
3:30 AM34 °FPassing clouds.6 mph87%29.47 "HgN/A
3:00 AM34 °FSnow flurries. Passing clouds.3 mph87%29.47 "HgN/A
2:30 AM34 °FPassing clouds.6 mph93%29.45 "HgN/A
2:00 AM34 °FPassing clouds.6 mph87%29.45 "HgN/A
1:00 AM34 °FSnow flurries. Passing clouds.6 mph93%29.45 "HgN/A
12:00 AM34 °FSnow flurries. Passing clouds.6 mph93%29.42 "Hg6 mi
11:30 PM
Thu, Feb 11
34 °FSnow flurries. Passing clouds.8 mph93%29.42 "Hg6 mi
11:00 PM34 °FSnow flurries. Passing clouds.8 mph93%29.42 "Hg6 mi
10:30 PM34 °FSnow flurries. Passing clouds.8 mph93%29.42 "Hg6 mi
10:00 PM36 °FSnow flurries. Passing clouds.8 mph87%29.39 "HgN/A
9:30 PM36 °FSnow flurries. Passing clouds.6 mph87%29.39 "HgN/A
9:00 PM36 °FPassing clouds.6 mph87%29.39 "HgN/A
8:30 PM36 °FPassing clouds.6 mph87%29.39 "HgN/A
8:00 PM36 °FPassing clouds.6 mph87%29.39 "HgN/A
7:30 PM36 °FPassing clouds.6 mph87%29.39 "HgN/A
7:00 PM36 °FPassing clouds.3 mph87%29.39 "HgN/A
6:30 PM36 °FPassing clouds.6 mph87%29.39 "HgN/A
6:00 PM36 °FPassing clouds.6 mph87%29.39 "HgN/A
5:30 PM36 °FPartly sunny.6 mph87%29.36 "HgN/A
5:00 PM36 °FPartly sunny.6 mph87%29.36 "HgN/A
4:30 PM36 °FPartly sunny.8 mph87%29.36 "HgN/A
4:00 PM36 °FPartly sunny.8 mph87%29.36 "HgN/A
Weather by CustomWeather, © 2016

See weather overviewHow to use our weather pages